NITRO1 ETNN-ETNN

Flight info

Callsign NITRO1
Flight time 0h 33m
Altitude 50000
Route ETNT ETNT
Aircraft EUFI/M-SDE3FGHIRWY/LB1

Departure

Time 2026-05-05 15:30
Airport Nörvenich Air Base (ETNN)

Arrival

Time 2026-05-05 16:03
Airport Nörvenich Air Base (ETNN)
Time Latitude Longitude Altitude Speed Heading
2026-05-05 15:23 50.83349 6.64582 378 ft 0 kts 334°
2026-05-05 15:27 50.83354 6.64578 378 ft 5 kts 334°
2026-05-05 15:27 50.83324 6.64547 379 ft 11 kts 202°
2026-05-05 15:27 50.83244 6.64523 380 ft 10 kts 155°
2026-05-05 15:28 50.83143 6.64594 380 ft 22 kts 155°
2026-05-05 15:28 50.83019 6.64655 380 ft 9 kts 208°
2026-05-05 15:28 50.82993 6.64585 381 ft 8 kts 246°
2026-05-05 15:28 50.82959 6.64456 384 ft 18 kts 247°
2026-05-05 15:29 50.82901 6.64240 387 ft 22 kts 248°
2026-05-05 15:29 50.82856 6.64181 387 ft 7 kts 157°
2026-05-05 15:29 50.82792 6.64225 387 ft 14 kts 157°
2026-05-05 15:29 50.82727 6.64353 383 ft 19 kts 69°
2026-05-05 15:30 50.82902 6.64999 374 ft 155 kts 66°
2026-05-05 15:30 50.83554 6.67468 1007 ft 337 kts 67°
2026-05-05 15:30 50.84814 6.71845 2743 ft 521 kts 56°
2026-05-05 15:30 50.87550 6.76709 4138 ft 671 kts 44°
2026-05-05 15:31 50.90644 6.82854 4196 ft 761 kts 62°
2026-05-05 15:31 50.90158 6.91180 2891 ft 819 kts 108°
2026-05-05 15:31 50.87941 6.99308 2509 ft 798 kts 125°
2026-05-05 15:31 50.85464 7.06468 2674 ft 656 kts 95°
2026-05-05 15:32 50.85597 7.12952 1993 ft 540 kts 86°
2026-05-05 15:32 50.87789 7.16031 2168 ft 402 kts 27°
2026-05-05 15:32 50.90203 7.18252 2938 ft 458 kts 40°
2026-05-05 15:32 50.92732 7.22727 4223 ft 630 kts 50°
2026-05-05 15:33 50.95686 7.28690 5778 ft 732 kts 54°
2026-05-05 15:33 50.99333 7.33535 6721 ft 630 kts 16°
2026-05-05 15:33 51.03251 7.34785 6382 ft 528 kts 13°
2026-05-05 15:33 51.06597 7.36060 5688 ft 499 kts 355°
2026-05-05 15:34 51.10699 7.35138 5006 ft 686 kts 351°
2026-05-05 15:34 51.15801 7.34018 4585 ft 786 kts 353°
2026-05-05 15:34 51.21464 7.33158 4189 ft 844 kts 356°
2026-05-05 15:34 51.27460 7.32761 3783 ft 878 kts 358°
2026-05-05 15:35 51.33638 7.32398 3333 ft 897 kts 358°
2026-05-05 15:35 51.39902 7.32253 3034 ft 890 kts
2026-05-05 15:35 51.43850 7.36461 1504 ft 633 kts 66°
2026-05-05 15:35 51.45294 7.42203 2408 ft 515 kts 69°
2026-05-05 15:36 51.46485 7.48577 3261 ft 676 kts 77°
2026-05-05 15:36 51.47664 7.56395 4211 ft 755 kts 65°
2026-05-05 15:36 51.51520 7.62158 6376 ft 802 kts 19°
2026-05-05 15:36 51.56943 7.65127 8530 ft 847 kts 20°
2026-05-05 15:37 51.62573 7.68724 10607 ft 893 kts 22°
2026-05-05 15:37 51.68297 7.73184 12250 ft 942 kts 43°
2026-05-05 15:37 51.70877 7.82946 13120 ft 957 kts 73°
2026-05-05 15:37 51.72673 7.93134 14288 ft 1009 kts 75°
2026-05-05 15:38 51.74426 8.04331 15488 ft 1051 kts 76°
2026-05-05 15:38 51.76156 8.15952 16728 ft 1076 kts 77°
2026-05-05 15:38 51.77721 8.27794 17744 ft 1078 kts 78°
2026-05-05 15:38 51.79190 8.39463 17995 ft 981 kts 79°
2026-05-05 15:39 51.79761 8.47402 22045 ft 572 kts 94°
2026-05-05 15:39 51.79527 8.52437 22521 ft 334 kts 95°
2026-05-05 15:39 51.79374 8.55306 22749 ft 194 kts 96°
2026-05-05 15:39 51.79212 8.56953 21651 ft 119 kts 114°
2026-05-05 15:40 51.79162 8.58505 16839 ft 260 kts 74°
2026-05-05 15:40 51.79892 8.60399 13915 ft 304 kts 356°
2026-05-05 15:40 51.81169 8.60853 9535 ft 111 kts 34°
2026-05-05 15:40 51.81835 8.61631 4916 ft 191 kts 69°
2026-05-05 15:41 51.82281 8.62773 1908 ft 228 kts 13°
2026-05-05 15:41 51.83845 8.64514 2279 ft 366 kts 65°
2026-05-05 15:41 51.85041 8.69740 970 ft 607 kts 82°
2026-05-05 15:41 51.85126 8.77057 2160 ft 708 kts 72°
2026-05-05 15:42 51.86590 8.84354 1325 ft 763 kts 107°
2026-05-05 15:42 51.85083 8.92788 1885 ft 773 kts 105°
2026-05-05 15:42 51.81190 8.97803 2217 ft 753 kts 116°
2026-05-05 15:42 51.82597 9.05440 1011 ft 804 kts 52°
2026-05-05 15:43 51.83799 9.13324 720 ft 601 kts 77°
2026-05-05 15:43 51.84284 9.17617 1371 ft 237 kts 116°
2026-05-05 15:43 51.84217 9.19243 3147 ft 163 kts 97°
2026-05-05 15:43 51.84664 9.21063 4079 ft 292 kts
2026-05-05 15:44 51.87629 9.19881 3366 ft 575 kts 341°
2026-05-05 15:44 51.92088 9.17850 3847 ft 720 kts 343°
2026-05-05 15:44 51.96172 9.15230 12458 ft 639 kts 326°
2026-05-05 15:44 51.98775 9.09364 18636 ft 722 kts 278°
2026-05-05 15:45 51.98744 9.00636 19082 ft 828 kts 264°
2026-05-05 15:45 51.98304 8.90775 18750 ft 930 kts 267°
2026-05-05 15:45 51.98074 8.79656 18296 ft 1033 kts 268°
2026-05-05 15:45 51.97874 8.67687 17766 ft 1082 kts 269°
2026-05-05 15:46 51.98080 8.55349 17038 ft 1104 kts 272°
2026-05-05 15:46 51.98595 8.42883 16182 ft 1112 kts 275°
2026-05-05 15:46 51.99486 8.30406 15019 ft 1116 kts 277°
2026-05-05 15:46 52.00504 8.17993 12709 ft 1115 kts 278°
2026-05-05 15:47 52.02225 8.05791 10274 ft 1104 kts 292°
2026-05-05 15:47 52.04194 7.98236 9146 ft 1085 kts 293°
2026-05-05 15:47 52.08063 7.84407 7442 ft 821 kts 294°
2026-05-05 15:47 52.09353 7.76985 5964 ft 585 kts 271°
2026-05-05 15:48 52.09043 7.71489 3890 ft 349 kts 263°
2026-05-05 15:48 52.08802 7.68155 3057 ft 286 kts 261°
2026-05-05 15:48 52.08111 7.65269 2784 ft 268 kts 240°
2026-05-05 15:48 52.07489 7.62603 2523 ft 247 kts 284°
2026-05-05 15:49 52.08170 7.60061 2031 ft 250 kts 308°
2026-05-05 15:49 52.09306 7.57989 1903 ft 239 kts 317°
2026-05-05 15:49 52.10829 7.57418 1506 ft 229 kts 24°
2026-05-05 15:49 52.11661 7.59407 1094 ft 220 kts 65°
2026-05-05 15:50 52.13287 7.60687 1465 ft 377 kts 33°
2026-05-05 15:50 52.15818 7.64683 3006 ft 632 kts 54°
2026-05-05 15:50 52.13266 7.69528 4971 ft 696 kts 99°
2026-05-05 15:50 52.17124 7.74072 3827 ft 799 kts 24°
2026-05-05 15:51 52.22054 7.73509 7960 ft 745 kts 327°
2026-05-05 15:51 52.24663 7.66327 14674 ft 777 kts 279°
2026-05-05 15:51 52.23560 7.58010 20995 ft 791 kts 239°
2026-05-05 15:51 52.20282 7.50547 25718 ft 826 kts 231°
2026-05-05 15:52 52.16799 7.42754 31510 ft 880 kts 235°
2026-05-05 15:52 52.13469 7.34901 39034 ft 760 kts 233°
2026-05-05 15:52 52.10588 7.28427 41818 ft 659 kts 233°
2026-05-05 15:52 52.07323 7.24332 41183 ft 527 kts 142°
2026-05-05 15:53 52.03837 7.25314 40337 ft 477 kts 193°
2026-05-05 15:53 52.02670 7.22179 39724 ft 329 kts 279°
2026-05-05 15:53 52.03331 7.18789 38197 ft 306 kts 298°
2026-05-05 15:53 52.04617 7.15974 36015 ft 319 kts 317°
2026-05-05 15:54 52.05866 7.13158 34681 ft 302 kts 296°
2026-05-05 15:54 52.06598 7.10054 33336 ft 286 kts 265°
2026-05-05 15:54 52.06395 7.06836 31800 ft 287 kts 254°
2026-05-05 15:54 52.05876 7.03738 30901 ft 301 kts 256°
2026-05-05 15:55 52.05459 7.00360 31300 ft 299 kts 255°
2026-05-05 15:55 52.04905 6.97031 32118 ft 314 kts 255°
2026-05-05 15:55 52.04336 6.93163 30935 ft 396 kts 259°
2026-05-05 15:55 52.03845 6.88301 29127 ft 442 kts 257°
2026-05-05 15:56 52.03154 6.82602 23940 ft 600 kts 249°
2026-05-05 15:56 52.00011 6.77663 23195 ft 694 kts 204°
2026-05-05 15:56 51.95101 6.75436 23132 ft 777 kts 189°
2026-05-05 15:56 51.89551 6.73976 22633 ft 859 kts 189°
2026-05-05 15:57 51.83254 6.72318 22076 ft 950 kts 189°
2026-05-05 15:57 51.76442 6.70517 21451 ft 1031 kts 189°
2026-05-05 15:57 51.69192 6.68592 20720 ft 1073 kts 189°
2026-05-05 15:57 51.61708 6.67020 19780 ft 1095 kts 184°
2026-05-05 15:58 51.54029 6.67046 17976 ft 1112 kts 175°
2026-05-05 15:58 51.46340 6.68925 15038 ft 1131 kts 167°
2026-05-05 15:58 51.38772 6.72118 11555 ft 1143 kts 164°
2026-05-05 15:58 51.31459 6.75373 3439 ft 1061 kts 165°
2026-05-05 15:59 51.24518 6.74911 3216 ft 986 kts 219°
2026-05-05 15:59 51.19703 6.67505 7044 ft 946 kts 225°
2026-05-05 15:59 51.15093 6.60064 9837 ft 944 kts 225°
2026-05-05 15:59 51.09560 6.55730 10919 ft 957 kts 167°
2026-05-05 16:00 51.03638 6.57946 10226 ft 776 kts 168°
2026-05-05 16:00 50.99305 6.60974 9056 ft 624 kts 146°
2026-05-05 16:00 50.95916 6.64486 7805 ft 545 kts 148°
2026-05-05 16:00 50.92840 6.67313 6521 ft 454 kts 193°
2026-05-05 16:01 50.90078 6.65836 5147 ft 409 kts 202°
2026-05-05 16:01 50.87784 6.66184 4125 ft 324 kts 171°
2026-05-05 16:01 50.86185 6.64454 2853 ft 295 kts 237°
2026-05-05 16:01 50.85129 6.61733 2118 ft 287 kts 239°
2026-05-05 16:02 50.84138 6.59117 1676 ft 259 kts 233°
2026-05-05 16:02 50.82854 6.57988 1316 ft 204 kts 189°
2026-05-05 16:02 50.81625 6.58386 1166 ft 188 kts 137°
2026-05-05 16:02 50.81584 6.60441 889 ft 244 kts 57°
2026-05-05 16:03 50.82147 6.62145 688 ft 271 kts 68°
2026-05-05 16:03 50.82740 6.64404 382 ft 176 kts 68°
2026-05-05 16:03 50.83166 6.65986 358 ft 119 kts 66°
2026-05-05 16:03 50.83328 6.66579 350 ft 20 kts 67°
2026-05-05 16:04 50.83385 6.66779 341 ft 18 kts 53°
2026-05-05 16:04 50.83400 6.66855 335 ft 1 kts 359°